ITY110 LPPT-LIRF

Flight info

Callsign ITY110
Flight time 2h 12m
Altitude 40000
Route ORVED DCT UREDI N870 PONEN DCT SEROX DCT VILAR/N0463F390 DCT KARES/N0462F400 DCT BISES DCT BCN/N0460F390 DCT DIPES/N0461F400 N725 TOSNU/N0460F390 DCT LAPIT DCT OSPOK DCT NOLVI DCT ORKUM/N0460F400 DCT ELSAG DCT ALG DCT ROMPO DCT RUXOP DCT BATOX DCT TINTO L5 VALMA
Aircraft A332/H-SDE3GHIJ2J3J5M1RVWXY/LB2D1

Departure

Time 2026-05-04 06:35
Airport Lisbon Humberto Delgado Airport (LPPT)

Arrival

Time 2026-05-04 08:47
Airport Rome–Fiumicino Leonardo da Vinci International Airport (LIRF)
Time Latitude Longitude Altitude Speed Heading
2026-05-04 06:05 38.76882 -9.13587 351 ft 0 kts 262°
2026-05-04 06:25 38.76885 -9.13555 361 ft 3 kts 262°
2026-05-04 06:25 38.76887 -9.13531 359 ft 3 kts 281°
2026-05-04 06:26 38.76888 -9.13506 361 ft 3 kts 229°
2026-05-04 06:26 38.76904 -9.13491 359 ft 3 kts 177°
2026-05-04 06:26 38.76914 -9.13493 358 ft 0 kts 172°
2026-05-04 06:29 38.76908 -9.13492 359 ft 2 kts 172°
2026-05-04 06:29 38.76875 -9.13485 358 ft 8 kts 170°
2026-05-04 06:29 38.76815 -9.13471 360 ft 9 kts 170°
2026-05-04 06:30 38.76748 -9.13455 355 ft 10 kts 169°
2026-05-04 06:30 38.76679 -9.13455 361 ft 10 kts 206°
2026-05-04 06:30 38.76648 -9.13529 357 ft 10 kts 255°
2026-05-04 06:30 38.76632 -9.13619 353 ft 11 kts 257°
2026-05-04 06:31 38.76615 -9.13717 359 ft 12 kts 258°
2026-05-04 06:31 38.76598 -9.13820 359 ft 12 kts 258°
2026-05-04 06:31 38.76579 -9.13931 353 ft 13 kts 258°
2026-05-04 06:31 38.76560 -9.14049 355 ft 14 kts 258°
2026-05-04 06:32 38.76572 -9.14170 354 ft 15 kts 290°
2026-05-04 06:33 38.76783 -9.14317 353 ft 36 kts 22°
2026-05-04 06:34 38.77203 -9.14093 353 ft 93 kts 22°
2026-05-04 06:34 38.77956 -9.13692 357 ft 140 kts 23°
2026-05-04 06:34 38.78957 -9.13138 502 ft 166 kts 24°
2026-05-04 06:34 38.80025 -9.12487 942 ft 174 kts 27°
2026-05-04 06:35 38.81097 -9.11727 1577 ft 172 kts 34°
2026-05-04 06:36 38.86311 -8.99838 5044 ft 266 kts 62°
2026-05-04 06:37 38.87163 -8.97712 5844 ft 270 kts 58°
2026-05-04 06:37 38.88277 -8.95762 6678 ft 271 kts 48°
2026-05-04 06:37 38.89538 -8.93940 7476 ft 275 kts 46°
2026-05-04 06:37 38.90847 -8.92110 8262 ft 281 kts 45°
2026-05-04 06:38 38.92189 -8.90238 9066 ft 286 kts 45°
2026-05-04 06:38 38.93550 -8.88331 9867 ft 291 kts 45°
2026-05-04 06:40 39.04925 -8.72261 13037 ft 385 kts 46°
2026-05-04 06:40 39.06743 -8.69684 13651 ft 391 kts 46°
2026-05-04 06:40 39.08575 -8.67048 14234 ft 397 kts 48°
2026-05-04 06:40 39.10164 -8.64116 14850 ft 403 kts 60°
2026-05-04 06:41 39.11305 -8.60793 15448 ft 408 kts 68°
2026-05-04 06:41 39.12286 -8.57345 16045 ft 412 kts 70°
2026-05-04 06:41 39.13249 -8.53859 16652 ft 415 kts 69°
2026-05-04 06:41 39.14208 -8.50391 17223 ft 418 kts 69°
2026-05-04 06:42 39.15191 -8.46856 17812 ft 421 kts 69°
2026-05-04 06:42 39.16182 -8.43296 18376 ft 424 kts 69°
2026-05-04 06:42 39.17182 -8.39709 18869 ft 427 kts 69°
2026-05-04 06:44 39.24434 -8.13607 21938 ft 455 kts 70°
2026-05-04 06:44 39.25487 -8.09797 22355 ft 458 kts 70°
2026-05-04 06:44 39.26558 -8.05914 22773 ft 462 kts 70°
2026-05-04 06:45 39.27644 -8.01981 23167 ft 465 kts 70°
2026-05-04 06:45 39.28768 -7.98051 23570 ft 469 kts 69°
2026-05-04 06:45 39.29914 -7.94094 23907 ft 472 kts 69°
2026-05-04 06:45 39.31075 -7.90091 24230 ft 476 kts 69°
2026-05-04 06:46 39.32230 -7.86094 24738 ft 474 kts 69°
2026-05-04 06:46 39.33381 -7.82103 25146 ft 475 kts 69°
2026-05-04 06:46 39.34540 -7.78078 25405 ft 480 kts 69°
2026-05-04 06:46 39.35707 -7.74019 25705 ft 484 kts 69°
2026-05-04 06:48 39.45640 -7.45666 27606 ft 508 kts 63°
2026-05-04 06:48 39.47240 -7.41545 27876 ft 511 kts 63°
2026-05-04 06:49 39.48835 -7.37414 28161 ft 514 kts 63°
2026-05-04 06:50 39.60160 -7.07718 30041 ft 535 kts 64°
2026-05-04 06:51 39.61808 -7.03368 30312 ft 536 kts 64°
2026-05-04 06:51 39.63452 -6.99022 30538 ft 538 kts 64°
2026-05-04 06:51 39.65104 -6.94649 30859 ft 538 kts 64°
2026-05-04 06:51 39.66746 -6.90296 31215 ft 537 kts 64°
2026-05-04 06:52 39.68383 -6.85947 31551 ft 536 kts 64°
2026-05-04 06:52 39.70018 -6.81598 31817 ft 537 kts 65°
2026-05-04 06:52 39.71655 -6.77235 32012 ft 539 kts 65°
2026-05-04 06:52 39.73301 -6.72846 32305 ft 539 kts 65°
2026-05-04 06:53 39.74939 -6.68472 32656 ft 538 kts 65°
2026-05-04 06:53 39.76555 -6.64149 32978 ft 537 kts 65°
2026-05-04 06:53 39.78188 -6.59776 33282 ft 537 kts 65°
2026-05-04 06:53 39.79816 -6.55408 33578 ft 537 kts 65°
2026-05-04 06:54 39.81448 -6.51026 33879 ft 537 kts 65°
2026-05-04 06:54 39.83072 -6.46658 34155 ft 536 kts 65°
2026-05-04 06:54 39.86320 -6.37844 34435 ft 541 kts 66°
2026-05-04 06:55 39.87852 -6.33408 34898 ft 535 kts 68°
2026-05-04 06:55 39.89332 -6.28973 35265 ft 532 kts 68°
2026-05-04 06:55 39.90769 -6.24603 35505 ft 531 kts 68°
2026-05-04 06:55 39.92220 -6.20175 35712 ft 531 kts 68°
2026-05-04 06:56 39.93674 -6.15743 35950 ft 530 kts 68°
2026-05-04 06:57 40.03831 -5.84912 37491 ft 527 kts 68°
2026-05-04 06:58 40.05271 -5.80522 37719 ft 526 kts 68°
2026-05-04 06:58 40.06708 -5.76132 37930 ft 525 kts 68°
2026-05-04 06:58 40.08142 -5.71745 38141 ft 524 kts 69°
2026-05-04 06:58 40.09572 -5.67364 38267 ft 525 kts 69°
2026-05-04 06:59 40.11004 -5.62969 38446 ft 525 kts 69°
2026-05-04 06:59 40.12428 -5.58591 38683 ft 523 kts 69°
2026-05-04 06:59 40.13843 -5.54235 38961 ft 520 kts 69°
2026-05-04 06:59 40.15258 -5.49874 39130 ft 519 kts 69°
2026-05-04 07:01 40.25064 -5.19427 39940 ft 521 kts 69°
2026-05-04 07:01 40.26468 -5.15043 39995 ft 522 kts 69°
2026-05-04 07:02 40.28802 -5.07735 39994 ft 523 kts 69°
2026-05-04 07:02 40.31602 -4.98939 39999 ft 523 kts 69°
2026-05-04 07:03 40.34401 -4.90119 39997 ft 523 kts 69°
2026-05-04 07:03 40.37193 -4.81291 39982 ft 525 kts 69°
2026-05-04 07:04 40.39985 -4.72433 39985 ft 524 kts 70°
2026-05-04 07:04 40.42747 -4.63644 39986 ft 524 kts 70°
2026-05-04 07:05 40.45517 -4.54800 39978 ft 524 kts 70°
2026-05-04 07:05 40.48288 -4.45922 39981 ft 525 kts 70°
2026-05-04 07:06 40.52432 -4.32593 39979 ft 525 kts 70°
2026-05-04 07:07 40.55192 -4.23680 39974 ft 525 kts 70°
2026-05-04 07:09 40.66125 -3.88078 39993 ft 525 kts 70°
2026-05-04 07:09 40.68844 -3.79149 39989 ft 525 kts 70°
2026-05-04 07:10 40.71542 -3.70262 39972 ft 525 kts 70°
2026-05-04 07:12 40.82334 -3.34405 39964 ft 525 kts 71°
2026-05-04 07:12 40.84963 -3.25399 39968 ft 524 kts 76°
2026-05-04 07:13 40.86940 -3.16207 39977 ft 523 kts 78°
2026-05-04 07:13 40.88784 -3.06914 39968 ft 523 kts 78°
2026-05-04 07:14 40.93305 -2.83619 39965 ft 523 kts 79°
2026-05-04 07:15 40.95113 -2.74295 39965 ft 523 kts 79°
2026-05-04 07:15 40.96914 -2.64968 39951 ft 523 kts 79°
2026-05-04 07:16 40.98707 -2.55633 39957 ft 524 kts 79°
2026-05-04 07:16 41.00495 -2.46280 39961 ft 524 kts 79°
2026-05-04 07:17 41.02277 -2.36919 39958 ft 524 kts 79°
2026-05-04 07:17 41.04039 -2.27616 39940 ft 524 kts 79°
2026-05-04 07:18 41.05805 -2.18242 39957 ft 525 kts 79°
2026-05-04 07:18 41.07569 -2.08835 39960 ft 526 kts 79°
2026-05-04 07:19 41.09327 -1.99413 39958 ft 526 kts 79°
2026-05-04 07:19 41.11077 -1.89992 39946 ft 526 kts 79°
2026-05-04 07:20 41.12807 -1.80630 39965 ft 525 kts 79°
2026-05-04 07:20 41.14535 -1.71238 39964 ft 524 kts 79°
2026-05-04 07:22 41.21367 -1.33619 39954 ft 524 kts 80°
2026-05-04 07:23 41.23059 -1.24189 39956 ft 524 kts 80°
2026-05-04 07:23 41.24731 -1.14818 39957 ft 524 kts 80°
2026-05-04 07:24 41.26403 -1.05402 39961 ft 523 kts 81°
2026-05-04 07:24 41.28068 -0.95977 39959 ft 523 kts 81°
2026-05-04 07:26 41.34629 -0.58296 39987 ft 524 kts 83°
2026-05-04 07:27 41.35203 -0.48757 39968 ft 515 kts 94°
2026-05-04 07:27 41.35209 -0.39216 39972 ft 515 kts 96°
2026-05-04 07:28 41.35101 -0.29685 39978 ft 515 kts 96°
2026-05-04 07:28 41.34991 -0.20146 39974 ft 515 kts 96°
2026-05-04 07:29 41.34891 -0.10608 39978 ft 515 kts 96°
2026-05-04 07:29 41.34793 -0.01060 39970 ft 515 kts 96°
2026-05-04 07:30 41.34687 0.08494 39975 ft 517 kts 96°
2026-05-04 07:30 41.34573 0.18037 39979 ft 518 kts 96°
2026-05-04 07:31 41.34451 0.27624 39980 ft 518 kts 96°
2026-05-04 07:33 41.33880 0.65964 39983 ft 519 kts 97°
2026-05-04 07:33 41.33718 0.75578 39982 ft 519 kts 97°
2026-05-04 07:34 41.33546 0.85187 39985 ft 520 kts 97°
2026-05-04 07:34 41.33364 0.94831 39991 ft 521 kts 97°
2026-05-04 07:35 41.33176 1.04475 39989 ft 521 kts 97°
2026-05-04 07:35 41.32981 1.14117 39991 ft 521 kts 97°
2026-05-04 07:36 41.32779 1.23767 39992 ft 522 kts 97°
2026-05-04 07:38 41.31880 1.62371 39985 ft 524 kts 97°
2026-05-04 07:38 41.31634 1.72075 39991 ft 524 kts 97°
2026-05-04 07:39 41.31380 1.81774 39986 ft 525 kts 97°
2026-05-04 07:39 41.31118 1.91478 39976 ft 524 kts 97°
2026-05-04 07:40 41.30849 2.01122 39998 ft 526 kts 97°
2026-05-04 07:40 41.30395 2.10872 39996 ft 520 kts 106°
2026-05-04 07:41 41.29055 2.20240 39988 ft 518 kts 108°
2026-05-04 07:41 41.27514 2.29608 39967 ft 518 kts 109°
2026-05-04 07:42 41.25929 2.38977 39984 ft 519 kts 109°
2026-05-04 07:42 41.24358 2.48304 39978 ft 520 kts 109°
2026-05-04 07:43 41.22782 2.57684 39974 ft 520 kts 109°
2026-05-04 07:43 41.21203 2.67062 39973 ft 520 kts 109°
2026-05-04 07:44 41.19615 2.76431 39974 ft 520 kts 109°
2026-05-04 07:44 41.18019 2.85802 39974 ft 520 kts 109°
2026-05-04 07:45 41.16424 2.95114 39974 ft 520 kts 109°
2026-05-04 07:45 41.14812 3.04478 39974 ft 520 kts 109°
2026-05-04 07:46 41.13192 3.13840 39977 ft 520 kts 109°
2026-05-04 07:46 41.11565 3.23191 39980 ft 520 kts 109°
2026-05-04 07:47 41.09929 3.32551 39980 ft 520 kts 109°
2026-05-04 07:49 41.03326 3.69836 39982 ft 520 kts 109°
2026-05-04 07:49 41.01654 3.79155 39985 ft 520 kts 109°
2026-05-04 07:50 41.00258 3.86900 39983 ft 520 kts 109°
2026-05-04 07:50 40.98570 3.96221 39985 ft 520 kts 109°
2026-05-04 07:51 40.96878 4.05524 39988 ft 520 kts 109°
2026-05-04 07:51 40.95179 4.14816 39991 ft 520 kts 109°
2026-05-04 07:52 40.93469 4.24123 39987 ft 520 kts 109°
2026-05-04 07:52 40.91765 4.33353 40004 ft 520 kts 109°
2026-05-04 07:54 40.86773 4.71205 40006 ft 524 kts 102°
2026-05-04 07:55 40.85780 4.80750 40007 ft 524 kts 102°
2026-05-04 07:55 40.84775 4.90237 40004 ft 524 kts 102°
2026-05-04 07:56 40.83752 4.99777 40002 ft 524 kts 102°
2026-05-04 07:56 40.82722 5.09307 40016 ft 524 kts 102°
2026-05-04 07:57 40.81683 5.18848 40005 ft 524 kts 102°
2026-05-04 07:57 40.80638 5.28365 40011 ft 523 kts 102°
2026-05-04 07:58 40.79592 5.37824 40010 ft 523 kts 102°
2026-05-04 07:58 40.78531 5.47337 40023 ft 523 kts 102°
2026-05-04 07:59 40.77465 5.56829 40012 ft 523 kts 102°
2026-05-04 07:59 40.76389 5.66332 40025 ft 524 kts 102°
2026-05-04 08:00 40.75305 5.75834 40028 ft 524 kts 102°
2026-05-04 08:02 40.71115 6.13816 40033 ft 524 kts 101°
2026-05-04 08:02 40.70128 6.23337 40035 ft 524 kts 101°
2026-05-04 08:03 40.69123 6.32872 40040 ft 524 kts 101°
2026-05-04 08:03 40.68107 6.42382 40045 ft 524 kts 101°
2026-05-04 08:04 40.67082 6.51896 40044 ft 524 kts 101°
2026-05-04 08:04 40.66058 6.61326 40048 ft 523 kts 101°
2026-05-04 08:05 40.65020 6.70813 40053 ft 523 kts 101°
2026-05-04 08:05 40.63977 6.80280 40053 ft 523 kts 101°
2026-05-04 08:06 40.62924 6.89756 40054 ft 522 kts 101°
2026-05-04 08:06 40.61864 6.99225 40056 ft 522 kts 101°
2026-05-04 08:08 40.57559 7.36967 40064 ft 522 kts 101°
2026-05-04 08:10 40.58525 7.74976 40074 ft 522 kts 84°
2026-05-04 08:11 40.58947 7.79740 40068 ft 522 kts 84°
2026-05-04 08:11 40.60167 7.93994 40070 ft 522 kts 84°
2026-05-04 08:12 40.60958 8.03506 40073 ft 522 kts 84°
2026-05-04 08:12 40.61742 8.13004 40072 ft 522 kts 84°
2026-05-04 08:13 40.62632 8.22419 40073 ft 522 kts 77°
2026-05-04 08:13 40.64896 8.31481 40078 ft 519 kts 67°
2026-05-04 08:14 40.67613 8.40288 40076 ft 518 kts 65°
2026-05-04 08:16 40.78661 8.75299 40077 ft 518 kts 65°
2026-05-04 08:16 40.81391 8.84093 40085 ft 518 kts 66°
2026-05-04 08:17 40.84118 8.92900 40080 ft 518 kts 66°
2026-05-04 08:17 40.86839 9.01714 40083 ft 518 kts 66°
2026-05-04 08:19 40.97644 9.37009 40100 ft 518 kts 66°
2026-05-04 08:20 41.00315 9.45805 40102 ft 518 kts 66°
2026-05-04 08:20 41.02990 9.54648 40103 ft 517 kts 66°
2026-05-04 08:21 41.05657 9.63490 40102 ft 516 kts 66°
2026-05-04 08:21 41.08315 9.72332 40104 ft 516 kts 66°
2026-05-04 08:22 41.10956 9.81171 40103 ft 516 kts 66°
2026-05-04 08:24 41.21372 10.16481 40127 ft 513 kts 66°
2026-05-04 08:24 41.23984 10.25302 40126 ft 513 kts 66°
2026-05-04 08:25 41.26582 10.34115 40130 ft 511 kts 66°
2026-05-04 08:25 41.29170 10.42929 40137 ft 511 kts 66°
2026-05-04 08:27 41.39477 10.78361 37320 ft 520 kts 67°
2026-05-04 08:28 41.40773 10.82866 36694 ft 519 kts 68°
2026-05-04 08:28 41.42061 10.87351 36059 ft 518 kts 68°
2026-05-04 08:28 41.43348 10.91842 35439 ft 518 kts 68°
2026-05-04 08:28 41.44631 10.96321 34808 ft 517 kts 68°
2026-05-04 08:29 41.45911 11.00801 34162 ft 517 kts 69°
2026-05-04 08:29 41.47191 11.05277 33524 ft 514 kts 69°
2026-05-04 08:29 41.48467 11.09715 32791 ft 513 kts 69°
2026-05-04 08:31 41.56854 11.39385 30789 ft 445 kts 70°
2026-05-04 08:33 41.67494 11.62441 28079 ft 360 kts 43°
2026-05-04 08:33 41.69281 11.64731 27349 ft 363 kts 43°
2026-05-04 08:35 41.82095 11.81212 23972 ft 380 kts 44°
2026-05-04 08:35 41.83999 11.83666 23572 ft 379 kts 44°
2026-05-04 08:35 41.85897 11.86115 23117 ft 378 kts 44°
2026-05-04 08:35 41.88395 11.89341 22554 ft 375 kts 44°
2026-05-04 08:37 41.98906 12.02952 20317 ft 364 kts 45°
2026-05-04 08:37 42.00717 12.05303 19909 ft 359 kts 45°
2026-05-04 08:37 42.02498 12.07614 19288 ft 354 kts 45°
2026-05-04 08:38 42.04158 12.10042 18528 ft 351 kts 60°
2026-05-04 08:38 42.04962 12.13071 17725 ft 342 kts 89°
2026-05-04 08:38 42.04678 12.16131 16837 ft 333 kts 115°
2026-05-04 08:40 41.90177 12.20963 9165 ft 330 kts 208°
2026-05-04 08:40 41.88352 12.19095 7946 ft 331 kts 228°
2026-05-04 08:40 41.87177 12.16451 7062 ft 327 kts 250°
2026-05-04 08:41 41.86838 12.13543 6719 ft 307 kts 270°
2026-05-04 08:41 41.87215 12.10802 6526 ft 294 kts 289°
2026-05-04 08:41 41.88162 12.08469 6401 ft 285 kts 307°
2026-05-04 08:41 41.89571 12.06660 6292 ft 277 kts 324°
2026-05-04 08:42 41.91301 12.05572 5949 ft 277 kts 347°
2026-05-04 08:42 41.93242 12.05598 5359 ft 285 kts 17°
2026-05-04 08:42 41.94987 12.06868 4732 ft 289 kts 44°
2026-05-04 08:42 41.96412 12.08823 4132 ft 295 kts 53°
2026-05-04 08:43 41.97686 12.11027 3526 ft 300 kts 58°
2026-05-04 08:43 41.98668 12.13461 3137 ft 292 kts 76°
2026-05-04 08:43 41.98886 12.16063 3037 ft 270 kts 99°
2026-05-04 08:43 41.98422 12.18356 2999 ft 242 kts 123°
2026-05-04 08:44 41.97366 12.19995 2705 ft 226 kts 144°
2026-05-04 08:44 41.96103 12.21134 2407 ft 211 kts 155°
2026-05-04 08:46 41.88512 12.24492 854 ft 132 kts 162°
2026-05-04 08:46 41.87636 12.24862 675 ft 132 kts 163°
2026-05-04 08:46 41.86756 12.25232 505 ft 132 kts 163°
2026-05-04 08:46 41.85879 12.25602 323 ft 132 kts 164°
2026-05-04 08:47 41.85005 12.25969 154 ft 131 kts 166°
2026-05-04 08:47 41.84142 12.26334 20 ft 128 kts 164°
2026-05-04 08:47 41.83396 12.26645 17 ft 82 kts 161°
2026-05-04 08:47 41.83019 12.26808 20 ft 49 kts 163°
2026-05-04 08:48 41.82694 12.26857 25 ft 46 kts 185°
2026-05-04 08:48 41.82382 12.26795 16 ft 45 kts 184°
2026-05-04 08:48 41.82084 12.26878 15 ft 43 kts 162°
2026-05-04 08:48 41.81806 12.26996 17 ft 41 kts 162°
2026-05-04 08:49 41.81546 12.27104 23 ft 38 kts 162°
2026-05-04 08:50 41.80464 12.26537 18 ft 33 kts 249°
2026-05-04 08:50 41.80386 12.26250 17 ft 33 kts 250°
2026-05-04 08:51 41.80308 12.25963 16 ft 33 kts 249°
2026-05-04 08:51 41.80230 12.25680 18 ft 32 kts 249°
2026-05-04 08:51 41.80154 12.25410 26 ft 30 kts 249°
2026-05-04 08:51 41.80098 12.25137 21 ft 31 kts 269°
2026-05-04 08:52 41.80099 12.24862 21 ft 27 kts 252°
2026-05-04 08:52 41.80011 12.24770 18 ft 16 kts 215°
2026-05-04 08:52 41.79956 12.24641 17 ft 17 kts 249°
2026-05-04 08:52 41.79912 12.24483 15 ft 19 kts 248°
2026-05-04 08:53 41.79821 12.24423 17 ft 15 kts 160°
2026-05-04 08:54 41.79756 12.24595 17 ft 0 kts 91°